LILACSAT-1

Last updated on Feb. 24, 2019, 12:02 a.m. UTC

1 42725U 98067ME  19054.45786309  .00157352  20945-4  38202-3 0  9996
2 42725  51.6325 138.9885 0003873  16.7130  67.9867 15.95961760100211

Satellite is not in orbit.